Location: Bourg-d�Oueil
(42.8588°N, 0.4991°E)
Time: 19:01:11
(UTC+00:00)

SL-16 R/B - Pass Details

Date: 16 June 2021
Orbit: 843 x 845 km, 71.0° (Epoch: 31 July)

Event Time Altitude Azimuth Distance (km) Brightness Sun altitude
Rises 21:38:58 0° 228° (SW) 3,388 5.3 -16.3°
Reaches altitude 10° 21:41:36 10° 237° (WSW) 2,458 4.6 -16.6°
Maximum altitude 21:46:46 36° 303° (WNW) 1,305 3.7 -17.1°
Drops below altitude 10° 21:51:59 10° 10° (N) 2,473 5.3 -17.6°
Sets 21:54:39 0° 19° (NNE) 3,412 6.0 -17.8°
